FLOCK 4V-20 (46612 NORAD) Tracking and Keplerian Element Data

This shows tracking and keplerian element data for the satellite.

Feedback or suggestion? Click here.




ElementValue
Catalog46612
NameFLOCK 4V-20
Epoch Orbit668
Epoch Day330.76321343
Epoch Year2020
RAAN42.3506
Inclination97.466
Eccentricity0.00069
Argument of Perigee316.8209
Mean Anonmoly43.2481
Mean Motion15.14799257
Decay Rate1.021E-05
L11 46612U 20061BJ 20330.76321343 .00001021 00000-0 58510-4 0 9992
L22 46612 97.4660 42.3506 0006900 316.8209 43.2481 15.14799257 6689

Live tracking and technical data element details for FLOCK 4V-20 (NORAD 46612). FLOCK 4V-20 can be tracked NOW for your location showing map with azimuth and elevation plus other details from your city location.

Track the satellite on the map from your city or location and see movement details for azimuth, elevation, latitude, longitude, range, height, and movement on the map or in text.







IsCatalogInMostPopularTable: catalog: 46612, numindb: 10
Update: records affected: 1



GetName: 46612 FLOCK 4V-20

Hit Count: updated at: Fri, 27 Nov 2020 00:07:45 GMT